TimeCST,TemperatureF,Dew PointF,Humidity,Sea Level PressureIn,VisibilityMPH,Wind Direction,Wind SpeedMPH,Gust SpeedMPH,PrecipitationIn,Events,Conditions,WindDirDegrees,DateUTC
12:13 AM,21.2,19.4,93,29.97,10.0,SW,3.5,-,N/A,,Overcast,220,2013-01-02 06:13:00
12:33 AM,21.2,19.4,93,29.97,7.0,SW,3.5,-,N/A,,Overcast,220,2013-01-02 06:33:00
12:53 AM,21.2,19.4,93,29.96,7.0,SW,4.6,-,N/A,,Overcast,230,2013-01-02 06:53:00
1:13 AM,21.2,19.4,93,29.96,7.0,SW,4.6,-,N/A,,Overcast,220,2013-01-02 07:13:00
1:33 AM,21.2,19.4,93,29.95,7.0,Calm,Calm,-,N/A,,Overcast,0,2013-01-02 07:33:00
1:53 AM,21.2,19.4,93,29.95,7.0,SW,4.6,-,N/A,,Overcast,220,2013-01-02 07:53:00
2:13 AM,19.4,19.4,100,29.94,7.0,Calm,Calm,-,N/A,,Overcast,0,2013-01-02 08:13:00
2:33 AM,19.4,17.6,93,29.95,7.0,Calm,Calm,-,N/A,,Mostly Cloudy,0,2013-01-02 08:33:00
2:53 AM,17.6,17.6,100,29.94,7.0,Calm,Calm,-,N/A,,Mostly Cloudy,0,2013-01-02 08:53:00
3:33 AM,15.8,15.8,100,29.94,5.0,Calm,Calm,-,N/A,,Clear,0,2013-01-02 09:33:00
3:53 AM,15.8,15.8,100,29.93,5.0,South,4.6,-,N/A,,Clear,170,2013-01-02 09:53:00
4:13 AM,15.8,14.0,93,29.93,7.0,South,3.5,-,N/A,,Clear,190,2013-01-02 10:13:00
4:33 AM,14.0,12.2,93,29.92,7.0,South,3.5,-,N/A,,Clear,180,2013-01-02 10:33:00
4:53 AM,12.2,12.2,100,29.93,7.0,SSW,3.5,-,N/A,,Clear,200,2013-01-02 10:53:00
5:13 AM,12.2,12.2,100,29.92,7.0,Calm,Calm,-,N/A,,Clear,0,2013-01-02 11:13:00
5:33 AM,10.4,10.4,100,29.92,7.0,SSE,3.5,-,N/A,,Scattered Clouds,160,2013-01-02 11:33:00
6:13 AM,12.2,12.2,100,29.91,7.0,Calm,Calm,-,N/A,,Overcast,0,2013-01-02 12:13:00
6:33 AM,12.2,12.2,100,29.91,7.0,South,5.8,-,N/A,,Overcast,190,2013-01-02 12:33:00
6:53 AM,12.2,12.2,100,29.91,4.0,South,3.5,-,N/A,,Overcast,170,2013-01-02 12:53:00
7:13 AM,12.2,12.2,100,29.92,4.0,Calm,Calm,-,N/A,,Overcast,0,2013-01-02 13:13:00
7:33 AM,12.2,12.2,100,29.93,5.0,Calm,Calm,-,N/A,,Overcast,0,2013-01-02 13:33:00
7:53 AM,12.2,12.2,100,29.93,4.0,South,3.5,-,N/A,,Overcast,170,2013-01-02 13:53:00
8:13 AM,12.2,12.2,100,29.92,2.0,Calm,Calm,-,N/A,,Overcast,0,2013-01-02 14:13:00
8:33 AM,12.2,12.2,100,29.92,3.0,Calm,Calm,-,N/A,,Overcast,0,2013-01-02 14:33:00
8:53 AM,12.2,12.2,100,29.92,4.0,Calm,Calm,-,N/A,,Overcast,0,2013-01-02 14:53:00
9:13 AM,14.0,14.0,100,29.93,3.0,Calm,Calm,-,N/A,Snow,Light Snow,0,2013-01-02 15:13:00
9:33 AM,15.8,14.0,93,29.93,2.5,South,3.5,-,N/A,Snow,Light Snow,170,2013-01-02 15:33:00
9:53 AM,15.8,15.8,100,29.94,2.5,Calm,Calm,-,N/A,Snow,Light Snow,0,2013-01-02 15:53:00
10:13 AM,15.8,15.8,100,29.94,1.5,Calm,Calm,-,N/A,Snow,Light Snow,0,2013-01-02 16:13:00
10:33 AM,15.8,15.8,100,29.93,2.5,Calm,Calm,-,N/A,Snow,Light Snow,0,2013-01-02 16:33:00
10:53 AM,17.6,15.8,93,29.93,2.5,Calm,Calm,-,N/A,Snow,Light Snow,0,2013-01-02 16:53:00
11:13 AM,17.6,15.8,93,29.93,3.0,Calm,Calm,-,N/A,Snow,Light Snow,0,2013-01-02 17:13:00
11:33 AM,17.6,17.6,100,29.93,3.0,SSW,3.5,-,N/A,Snow,Light Snow,200,2013-01-02 17:33:00
11:53 AM,17.6,17.6,100,29.92,3.0,Calm,Calm,-,N/A,,Overcast,0,2013-01-02 17:53:00
12:13 PM,19.4,17.6,93,29.92,5.0,Calm,Calm,-,N/A,,Overcast,0,2013-01-02 18:13:00
12:33 PM,19.4,17.6,93,29.91,7.0,Calm,Calm,-,N/A,,Overcast,0,2013-01-02 18:33:00
12:53 PM,19.4,17.6,93,29.91,10.0,South,3.5,-,N/A,,Overcast,190,2013-01-02 18:53:00
1:13 PM,19.4,17.6,93,29.92,7.0,Calm,Calm,-,N/A,,Overcast,0,2013-01-02 19:13:00
1:33 PM,19.4,17.6,93,29.92,4.0,WSW,3.5,-,N/A,,Overcast,240,2013-01-02 19:33:00
1:53 PM,19.4,19.4,100,29.93,3.0,Calm,Calm,-,N/A,,Overcast,0,2013-01-02 19:53:00
2:13 PM,19.4,19.4,100,29.92,5.0,Calm,Calm,-,N/A,,Overcast,0,2013-01-02 20:13:00
2:33 PM,21.2,19.4,93,29.93,5.0,WSW,3.5,-,N/A,,Overcast,250,2013-01-02 20:33:00
2:53 PM,21.2,21.2,100,29.94,4.0,West,4.6,-,N/A,,Overcast,270,2013-01-02 20:53:00
3:13 PM,21.2,21.2,100,29.94,4.0,Calm,Calm,-,N/A,,Overcast,0,2013-01-02 21:13:00
3:33 PM,21.2,21.2,100,29.95,5.0,West,3.5,-,N/A,,Overcast,270,2013-01-02 21:33:00
3:53 PM,21.2,21.2,100,29.96,5.0,West,3.5,-,N/A,,Overcast,280,2013-01-02 21:53:00
4:13 PM,23.0,21.2,93,29.96,7.0,West,3.5,-,N/A,,Overcast,280,2013-01-02 22:13:00
4:33 PM,24.8,21.2,86,29.96,7.0,West,3.5,-,N/A,,Overcast,280,2013-01-02 22:33:00
5:13 PM,24.8,23.0,93,29.98,10.0,WNW,5.8,-,N/A,,Overcast,290,2013-01-02 23:13:00
5:33 PM,24.8,24.8,100,29.98,10.0,WNW,5.8,-,N/A,,Overcast,290,2013-01-02 23:33:00
5:53 PM,26.6,24.8,93,29.98,10.0,WNW,5.8,-,N/A,,Overcast,290,2013-01-02 23:53:00
6:12 PM,26.6,24.8,93,29.99,10.0,NW,10.4,17.3,N/A,,Overcast,310,2013-01-03 00:12:00
6:33 PM,24.8,21.2,86,30.00,10.0,NW,11.5,17.3,N/A,,Overcast,310,2013-01-03 00:33:00
6:53 PM,24.8,21.2,86,30.01,10.0,NW,15.0,19.6,N/A,,Overcast,310,2013-01-03 00:53:00
7:13 PM,24.8,21.2,86,30.02,10.0,WNW,11.5,17.3,N/A,,Overcast,290,2013-01-03 01:13:00
7:33 PM,23.0,19.4,86,30.02,10.0,NW,10.4,20.7,N/A,,Overcast,310,2013-01-03 01:33:00
7:53 PM,21.2,17.6,86,30.03,10.0,WNW,12.7,19.6,N/A,,Overcast,300,2013-01-03 01:53:00
8:13 PM,21.2,17.6,86,30.03,10.0,WNW,13.8,18.4,N/A,,Overcast,300,2013-01-03 02:13:00
8:33 PM,19.4,17.6,93,30.04,10.0,WNW,10.4,18.4,N/A,,Overcast,300,2013-01-03 02:33:00
8:53 PM,19.4,15.8,86,30.05,10.0,WNW,15.0,19.6,N/A,,Overcast,300,2013-01-03 02:53:00
9:13 PM,17.6,14.0,86,30.05,10.0,WNW,12.7,19.6,N/A,,Overcast,300,2013-01-03 03:13:00
9:33 PM,17.6,12.2,79,30.06,10.0,WNW,18.4,23.0,N/A,,Overcast,300,2013-01-03 03:33:00
9:53 PM,15.8,12.2,86,30.07,10.0,WNW,17.3,21.9,N/A,,Overcast,300,2013-01-03 03:53:00
10:12 PM,15.8,12.2,86,30.07,10.0,WNW,12.7,-,N/A,,Overcast,300,2013-01-03 04:12:00
10:33 PM,15.8,12.2,86,30.08,10.0,WNW,11.5,18.4,N/A,,Overcast,300,2013-01-03 04:33:00
10:53 PM,15.8,12.2,86,30.09,10.0,WNW,11.5,18.4,N/A,,Overcast,300,2013-01-03 04:53:00
11:12 PM,15.8,12.2,86,30.09,10.0,WNW,13.8,18.4,N/A,Snow,Light Snow,300,2013-01-03 05:12:00
11:33 PM,14.0,10.4,86,30.10,10.0,NW,12.7,17.3,N/A,,Overcast,310,2013-01-03 05:33:00
11:53 PM,14.0,10.4,86,30.10,10.0,NW,13.8,-,N/A,,Overcast,310,2013-01-03 05:53:00